| time (UTC) | temp F | wind direction | speed MPH | gust MPH | rain 1hr in | rain 24hr in | rain mn in | humidity % | barometer mb |
| 20260508081516 | 47 | 281 | 0.0 | 3.0 | 0.00 | 0.08 | 0.00 | 53 | 1009.6 |
| 20260508080014 | 47 | 300 | 0.0 | 3.0 | 0.00 | 0.08 | 0.00 | 52 | 1009.4 |
| 20260508074513 | 47 | 264 | 0.0 | 2.0 | 0.00 | 0.22 | 0.00 | 52 | 1009.1 |
| 20260508073012 | 47 | 199 | 0.0 | 1.0 | 0.00 | 0.22 | 0.00 | 52 | 1008.8 |
| 20260508071511 | 47 | 99 | 0.0 | 1.0 | 0.00 | 0.22 | 0.00 | 53 | 1008.7 |
| 20260508070013 | 46 | 35 | 0.0 | 0.0 | 0.00 | 0.22 | 0.00 | 53 | 1008.5 |
| 20260508064534 | 46 | 35 | 0.0 | 1.0 | 0.00 | 0.23 | 0.00 | 54 | 1008.3 |
| 20260508063008 | 46 | 35 | 0.0 | 1.0 | 0.00 | 0.23 | 0.00 | 55 | 1008.3 |
| 20260508061508 | 45 | 35 | 0.0 | 0.0 | 0.00 | 0.23 | 0.00 | 58 | 1008.3 |
| 20260508060008 | 45 | 35 | 0.0 | 0.0 | 0.00 | 0.23 | 0.00 | 57 | 1008.1 |
| 20260508054503 | 45 | 35 | 0.0 | 0.0 | 0.00 | 0.24 | 0.00 | 57 | 1008.1 |
| 20260508053106 | 46 | 35 | 0.0 | 0.0 | 0.00 | 0.24 | 0.00 | 57 | 1008.2 |
| 20260508051600 | 46 | 35 | 0.0 | 0.0 | 0.00 | 0.24 | 0.00 | 58 | 1008.3 |
| 20260508050059 | 46 | 35 | 0.0 | 0.0 | 0.00 | 0.24 | 0.00 | 57 | 1008.6 |
| 20260508044553 | 47 | 35 | 0.0 | 0.0 | 0.00 | 0.24 | 0.00 | 55 | 1008.7 |
| 20260508043049 | 48 | 35 | 0.0 | 1.0 | 0.00 | 0.24 | 0.00 | 53 | 1008.7 |
| 20260508041551 | 49 | 35 | 0.0 | 1.0 | 0.00 | 0.24 | 0.00 | 52 | 1008.9 |
| 20260508040047 | 49 | 35 | 0.0 | 1.0 | 0.00 | 0.24 | 0.00 | 53 | 1008.9 |
| 20260508034544 | 49 | 46 | 0.0 | 1.0 | 0.00 | 0.26 | 0.24 | 53 | 1008.8 |
| 20260508033042 | 50 | 45 | 0.0 | 1.0 | 0.00 | 0.26 | 0.24 | 54 | 1008.9 |
| 20260508031542 | 50 | 45 | 0.0 | 1.0 | 0.00 | 0.26 | 0.24 | 54 | 1008.9 |
| 20260508030053 | 50 | 45 | 0.0 | 1.0 | 0.00 | 0.26 | 0.24 | 53 | 1008.8 |
| 20260508024553 | 51 | 45 | 0.0 | 1.0 | 0.00 | 0.26 | 0.24 | 53 | 1008.8 |
| 20260508023040 | 51 | 45 | 0.0 | 1.0 | 0.00 | 0.26 | 0.24 | 53 | 1008.7 |
| 20260508021541 | 51 | 45 | 0.0 | 1.0 | 0.00 | 0.26 | 0.24 | 51 | 1008.9 |
| 20260508020046 | 51 | 46 | 0.0 | 1.0 | 0.00 | 0.26 | 0.24 | 53 | 1008.9 |
| 20260508014540 | 51 | 46 | 0.0 | 1.0 | 0.00 | 0.26 | 0.24 | 54 | 1009.0 |
| 20260508013039 | 52 | 47 | 0.0 | 0.0 | 0.00 | 0.26 | 0.24 | 52 | 1008.9 |
| 20260508011550 | 52 | 47 | 0.0 | 0.0 | 0.00 | 0.26 | 0.24 | 54 | 1008.6 |
| 20260508010046 | 53 | 47 | 0.0 | 0.0 | 0.00 | 0.26 | 0.24 | 52 | 1008.6 |
| 20260508004551 | 53 | 46 | 0.0 | 0.0 | 0.00 | 0.26 | 0.24 | 46 | 1008.4 |
| 20260508003042 | 55 | 46 | 0.0 | 0.0 | 0.00 | 0.26 | 0.24 | 44 | 1008.0 |
| 20260508001540 | 56 | 46 | 0.0 | 1.0 | 0.00 | 0.26 | 0.24 | 43 | 1007.8 |
| 20260508000036 | 56 | 47 | 0.0 | 1.0 | 0.00 | 0.26 | 0.24 | 41 | 1007.6 |
| 20260507234536 | 57 | 47 | 0.0 | 1.0 | 0.00 | 0.26 | 0.24 | 40 | 1007.3 |
| 20260507233035 | 58 | 58 | 0.0 | 2.0 | 0.00 | 0.26 | 0.24 | 38 | 1007.3 |
| 20260507231539 | 59 | 33 | 0.0 | 2.0 | 0.00 | 0.26 | 0.24 | 39 | 1007.1 |
| 20260507230036 | 59 | 27 | 0.0 | 2.0 | 0.00 | 0.26 | 0.24 | 37 | 1007.0 |
| 20260507224537 | 60 | 9 | 0.0 | 3.0 | 0.00 | 0.26 | 0.24 | 35 | 1006.9 |
| 20260507223033 | 61 | 36 | 0.0 | 4.0 | 0.00 | 0.26 | 0.24 | 36 | 1006.7 |
| 20260507221536 | 62 | 61 | 1.0 | 4.0 | 0.00 | 0.26 | 0.24 | 33 | 1006.5 |
| 20260507220032 | 63 | 23 | 1.0 | 5.0 | 0.00 | 0.26 | 0.24 | 32 | 1006.6 |
| 20260507214531 | 64 | 352 | 1.0 | 9.0 | 0.00 | 0.36 | 0.24 | 32 | 1006.5 |
| 20260507213032 | 64 | 30 | 1.0 | 6.0 | 0.00 | 0.36 | 0.24 | 32 | 1006.6 |
| 20260507211529 | 65 | 45 | 3.0 | 6.0 | 0.00 | 0.36 | 0.24 | 30 | 1006.4 |
| 20260507210029 | 65 | 5 | 1.0 | 5.0 | 0.00 | 0.36 | 0.24 | 31 | 1006.2 |
| 20260507204527 | 65 | 101 | 2.0 | 5.0 | 0.00 | 0.46 | 0.24 | 31 | 1006.1 |
| 20260507203026 | 66 | 22 | 1.0 | 6.0 | 0.00 | 0.46 | 0.24 | 30 | 1006.0 |
| 20260507201525 | 66 | 274 | 2.0 | 6.0 | 0.00 | 0.46 | 0.24 | 29 | 1006.0 |
| 20260507200033 | 66 | 261 | 1.0 | 8.0 | 0.00 | 0.46 | 0.24 | 31 | 1006.0 |
| 20260507194522 | 66 | 355 | 2.0 | 6.0 | 0.00 | 0.48 | 0.24 | 31 | 1006.1 |
| 20260507193025 | 66 | 4 | 1.0 | 6.0 | 0.00 | 0.48 | 0.24 | 29 | 1006.3 |
| 20260507191519 | 66 | 12 | 1.0 | 7.0 | 0.00 | 0.48 | 0.24 | 30 | 1006.5 |
| 20260507190031 | 65 | 47 | 2.0 | 7.0 | 0.00 | 0.48 | 0.24 | 30 | 1006.5 |
| 20260507184523 | 66 | 52 | 2.0 | 5.0 | 0.00 | 0.53 | 0.24 | 32 | 1006.8 |
| 20260507183019 | 66 | 346 | 2.0 | 7.0 | 0.00 | 0.53 | 0.24 | 31 | 1006.9 |
| 20260507181512 | 65 | 9 | 1.0 | 9.0 | 0.00 | 0.53 | 0.24 | 34 | 1006.9 |
| 20260507180012 | 65 | 184 | 2.0 | 4.0 | 0.00 | 0.53 | 0.24 | 33 | 1007.2 |
| 20260507174511 | 64 | 104 | 1.0 | 4.0 | 0.00 | 0.53 | 0.24 | 31 | 1007.3 |
| 20260507173006 | 64 | 61 | 2.0 | 6.0 | 0.00 | 0.53 | 0.24 | 37 | 1007.5 |
| 20260507171505 | 63 | 328 | 2.0 | 7.0 | 0.00 | 0.53 | 0.24 | 36 | 1007.6 |
| 20260507170004 | 63 | 243 | 1.0 | 10.0 | 0.00 | 0.53 | 0.24 | 35 | 1007.8 |
| 20260507164502 | 62 | 29 | 2.0 | 6.0 | 0.00 | 0.53 | 0.24 | 36 | 1007.9 |
| 20260507163103 | 62 | 247 | 1.0 | 6.0 | 0.00 | 0.53 | 0.24 | 39 | 1008.2 |
| 20260507161605 | 61 | 84 | 2.0 | 5.0 | 0.00 | 0.53 | 0.24 | 40 | 1008.4 |
| 20260507154554 | 60 | 40 | 1.0 | 6.0 | 0.00 | 0.53 | 0.24 | 45 | 1008.7 |
| 20260507153056 | 60 | 357 | 3.0 | 6.0 | 0.00 | 0.53 | 0.24 | 45 | 1008.8 |
| 20260507151551 | 59 | 274 | 2.0 | 5.0 | 0.00 | 0.53 | 0.24 | 45 | 1008.7 |
| 20260507150052 | 59 | 257 | 2.0 | 4.0 | 0.00 | 0.53 | 0.24 | 50 | 1008.8 |
| 20260507144550 | 58 | 24 | 2.0 | 5.0 | 0.00 | 0.53 | 0.24 | 52 | 1008.7 |
| 20260507143043 | 57 | 24 | 1.0 | 5.0 | 0.00 | 0.53 | 0.24 | 56 | 1008.9 |
| 20260507141540 | 56 | 345 | 1.0 | 6.0 | 0.00 | 0.53 | 0.24 | 65 | 1008.7 |
| 20260507140055 | 56 | 14 | 1.0 | 4.0 | 0.00 | 0.53 | 0.24 | 71 | 1008.8 |
| 20260507134536 | 54 | 266 | 0.0 | 4.0 | 0.00 | 0.53 | 0.24 | 77 | 1008.8 |
| 20260507133035 | 52 | 21 | 0.0 | 3.0 | 0.00 | 0.53 | 0.24 | 84 | 1008.8 |
| 20260507131536 | 52 | 21 | 0.0 | 3.0 | 0.00 | 0.53 | 0.24 | 86 | 1009.2 |
| 20260507130036 | 51 | 81 | 0.0 | 2.0 | 0.00 | 0.53 | 0.24 | 87 | 1008.9 |
| 20260507124531 | 50 | 19 | 0.0 | 2.0 | 0.00 | 0.53 | 0.24 | 89 | 1008.9 |
| 20260507123033 | 50 | 78 | 0.0 | 1.0 | 0.01 | 0.53 | 0.24 | 90 | 1009.2 |
| 20260507121538 | 50 | 4 | 0.0 | 2.0 | 0.02 | 0.53 | 0.24 | 92 | 1008.8 |
| 20260507120028 | 50 | 14 | 0.0 | 2.0 | 0.02 | 0.53 | 0.24 | 94 | 1008.9 |
| 20260507114527 | 50 | 272 | 0.0 | 2.0 | 0.02 | 0.53 | 0.24 | 94 | 1008.9 |
| 20260507113033 | 50 | 148 | 0.0 | 1.0 | 0.02 | 0.52 | 0.23 | 94 | 1008.8 |
| 20260507111525 | 50 | 260 | 0.0 | 1.0 | 0.02 | 0.51 | 0.22 | 94 | 1008.7 |
| 20260507110027 | 50 | 15 | 0.0 | 1.0 | 0.02 | 0.51 | 0.22 | 94 | 1008.4 |
| 20260507104523 | 50 | 12 | 0.0 | 0.0 | 0.02 | 0.51 | 0.22 | 94 | 1008.4 |
| 20260507103022 | 50 | 12 | 0.0 | 1.0 | 0.01 | 0.50 | 0.21 | 94 | 1008.2 |
| 20260507101527 | 50 | 292 | 0.0 | 3.0 | 0.01 | 0.49 | 0.20 | 94 | 1008.3 |
| 20260507100025 | 50 | 336 | 0.0 | 1.0 | 0.02 | 0.49 | 0.20 | 94 | 1007.6 |
| 20260507094521 | 50 | 73 | 0.0 | 1.0 | 0.02 | 0.49 | 0.20 | 94 | 1007.6 |
| 20260507093033 | 50 | 305 | 0.0 | 1.0 | 0.02 | 0.49 | 0.20 | 94 | 1007.3 |
| 20260507091515 | 50 | 265 | 0.0 | 1.0 | 0.01 | 0.48 | 0.19 | 94 | 1007.8 |
| 20260507090027 | 51 | 51 | 0.0 | 1.0 | 0.02 | 0.47 | 0.18 | 94 | 1007.7 |
| 20260507084515 | 51 | 12 | 0.0 | 1.0 | 0.03 | 0.47 | 0.18 | 94 | 1007.6 |
| 20260507083031 | 51 | 14 | 0.0 | 1.0 | 0.04 | 0.47 | 0.18 | 94 | 1007.1 |